2014110100 , 00 , 12
2014110101 , 01 , 29
2014110102 , 02 , 30
2014110103 , 03 , 23
2014110104 , 04 , 24
2014110105 , 05 , 20
2014110106 , 06 , 29
2014110107 , 07 , 32
2014110108 , 08 , 30
2014110109 , 09 , 22
2014110110 , 10 , 25
2014110111 , 11 , 20
2014110112 , 12 , 27
2014110113 , 13 , 26
2014110114 , 14 , 25
2014110115 , 15 , 28
2014110116 , 16 , 18
2014110117 , 17 , 42
2014110118 , 18 , 18
2014110119 , 19 , 19
2014110120 , 20 , 36
2014110121 , 21 , 30
2014110122 , 22 , 29
2014110123 , 23 , 16
2014110200 , 00 , 31
2014110201 , 01 , 27
2014110202 , 02 , 13
2014110203 , 03 , 21
2014110204 , 04 , 35
2014110205 , 05 , 49
2014110206 , 06 , 38
2014110207 , 07 , 23
2014110208 , 08 , 24
2014110209 , 09 , 28
2014110210 , 10 , 20
2014110211 , 11 , 21
2014110212 , 12 , 45
2014110213 , 13 , 51
2014110214 , 14 , 20
2014110215 , 15 , 13
2014110216 , 16 , 14
2014110217 , 17 , 22
2014110218 , 18 , 17
2014110219 , 19 , 25
2014110220 , 20 , 17
2014110221 , 21 , 20
2014110222 , 22 , 20
2014110223 , 23 , 16
2014110300 , 00 , 10
2014110301 , 01 , 3
2014110302 , 02 , 5
2014110303 , 03 , 3
2014110304 , 04 , 15
2014110305 , 05 , 16
2014110306 , 06 , 15
2014110307 , 07 , 18
2014110308 , 08 , 16
2014110309 , 09 , 22
2014110310 , 10 , 13
2014110311 , 11 , 14
2014110312 , 12 , 18
2014110313 , 13 , 16
2014110314 , 14 , 0
2014110315 , 15 , 0
2014110316 , 16 , 3
2014110317 , 17 , 26
2014110318 , 18 , 23
2014110319 , 19 , 13
2014110320 , 20 , 19
2014110321 , 21 , 19
2014110322 , 22 , 33
2014110323 , 23 , 25
2014110400 , 00 , 25
2014110401 , 01 , 20
2014110402 , 02 , 20
2014110403 , 03 , 25
2014110404 , 04 , 24
2014110405 , 05 , 37
2014110406 , 06 , 21
2014110407 , 07 , 26
2014110408 , 08 , 15
2014110409 , 09 , 12
2014110410 , 10 , 21
2014110411 , 11 , 36
2014110412 , 12 , 22
2014110413 , 13 , 13
2014110414 , 14 , 16
2014110415 , 15 , 19
2014110416 , 16 , 12
2014110417 , 17 , 22
2014110418 , 18 , 23
2014110419 , 19 , 34
2014110420 , 20 , 30
2014110421 , 21 , 17
2014110422 , 22 , 31
2014110423 , 23 , 20
2014110500 , 00 , 31
2014110501 , 01 , 17
2014110502 , 02 , 28
2014110503 , 03 , 22
2014110504 , 04 , 26
2014110505 , 05 , 36
2014110506 , 06 , 17
2014110507 , 07 , 19
2014110508 , 08 , 27
2014110509 , 09 , 19
2014110510 , 10 , 17
2014110511 , 11 , 26
2014110512 , 12 , 21
2014110513 , 13 , 14
2014110514 , 14 , 19
2014110515 , 15 , 26
2014110516 , 16 , 15
2014110517 , 17 , 17
2014110518 , 18 , 28
2014110519 , 19 , 19
2014110520 , 20 , 31
2014110521 , 21 , 23
2014110522 , 22 , 27
2014110523 , 23 , 26
2014110600 , 00 , 24
2014110601 , 01 , 26
2014110602 , 02 , 23
2014110603 , 03 , 19
2014110604 , 04 , 30
2014110605 , 05 , 29
2014110606 , 06 , 27
2014110607 , 07 , 28
2014110608 , 08 , 26
2014110609 , 09 , 30
2014110610 , 10 , 31
2014110611 , 11 , 23
2014110612 , 12 , 22
2014110613 , 13 , 21
2014110614 , 14 , 29
2014110615 , 15 , 23
2014110616 , 16 , 24
2014110617 , 17 , 28
2014110618 , 18 , 24
2014110619 , 19 , 26
2014110620 , 20 , 19
2014110621 , 21 , 18
2014110622 , 22 , 24
2014110623 , 23 , 28
2014110700 , 00 , 31
2014110701 , 01 , 21
2014110702 , 02 , 29
2014110703 , 03 , 29
2014110720 , 20 , 7
2014110721 , 21 , 22
2014110722 , 22 , 13
2014110723 , 23 , 17
2014110800 , 00 , 23
2014110801 , 01 , 28
2014110802 , 02 , 15
2014110803 , 03 , 19
2014110804 , 04 , 31
2014110805 , 05 , 16
2014110806 , 06 , 29
2014110807 , 07 , 30
2014110808 , 08 , 25
2014110809 , 09 , 29
2014110810 , 10 , 26
2014110811 , 11 , 25
2014110812 , 12 , 22
2014110813 , 13 , 12
2014110814 , 14 , 32
2014110815 , 15 , 14
2014110816 , 16 , 27
2014110817 , 17 , 32
2014110818 , 18 , 38
2014110819 , 19 , 23
2014110820 , 20 , 24
2014110821 , 21 , 30
2014110822 , 22 , 19
2014110823 , 23 , 16
2014110900 , 00 , 18
2014110901 , 01 , 33
2014110902 , 02 , 21
2014110903 , 03 , 27
2014110904 , 04 , 23
2014110905 , 05 , 27
2014110906 , 06 , 22
2014110907 , 07 , 28
2014110908 , 08 , 18
2014110909 , 09 , 18
2014110910 , 10 , 16
2014110911 , 11 , 19
2014110912 , 12 , 29
2014110913 , 13 , 16
2014110914 , 14 , 19
2014110915 , 15 , 51
2014110916 , 16 , 27
2014110917 , 17 , 9
2014110918 , 18 , 27
2014110919 , 19 , 41
2014110920 , 20 , 32
2014110921 , 21 , 24
2014110922 , 22 , 24
2014110923 , 23 , 23
2014111000 , 00 , 29
2014111001 , 01 , 25
2014111002 , 02 , 24
2014111003 , 03 , 27
2014111004 , 04 , 19
2014111005 , 05 , 21
2014111006 , 06 , 22
2014111007 , 07 , 22
2014111008 , 08 , 22
2014111009 , 09 , 24
2014111010 , 10 , 25
2014111011 , 11 , 26
2014111012 , 12 , 12
2014111013 , 13 , 23
2014111014 , 14 , 28
2014111015 , 15 , 19
2014111016 , 16 , 12
2014111017 , 17 , 19
2014111018 , 18 , 24
2014111019 , 19 , 26
2014111020 , 20 , 25
2014111021 , 21 , 30
2014111022 , 22 , 24
2014111023 , 23 , 35
2014111100 , 00 , 25
2014111101 , 01 , 26
2014111102 , 02 , 27
2014111103 , 03 , 23
2014111104 , 04 , 27
2014111105 , 05 , 23
2014111106 , 06 , 30
2014111107 , 07 , 28
2014111108 , 08 , 27
2014111109 , 09 , 25
2014111110 , 10 , 27
2014111111 , 11 , 17
2014111112 , 12 , 18
2014111113 , 13 , 23
2014111114 , 14 , 19
2014111115 , 15 , 49
2014111116 , 16 , 12
2014111117 , 17 , 17
2014111118 , 18 , 21
2014111119 , 19 , 28
2014111120 , 20 , 30
2014111121 , 21 , 19
2014111122 , 22 , 23
2014111123 , 23 , 27
2014111200 , 00 , 30
2014111201 , 01 , 24
2014111202 , 02 , 18
2014111203 , 03 , 17
2014111204 , 04 , 26
2014111205 , 05 , 28
2014111206 , 06 , 38
2014111207 , 07 , 21
2014111208 , 08 , 16
2014111209 , 09 , 20
2014111210 , 10 , 26
2014111211 , 11 , 24
2014111212 , 12 , 22
2014111213 , 13 , 25
2014111214 , 14 , 23
2014111215 , 15 , 28
2014111216 , 16 , 25
2014111221 , 21 , 26
2014111222 , 22 , 18
2014111223 , 23 , 21
2014111300 , 00 , 25
2014111301 , 01 , 22
2014111302 , 02 , 29
2014111303 , 03 , 28
2014111304 , 04 , 26
2014111305 , 05 , 25
2014111306 , 06 , 22
2014111307 , 07 , 17
2014111308 , 08 , 28
2014111309 , 09 , 33
2014111310 , 10 , 28
2014111311 , 11 , 18
2014111312 , 12 , 16
2014111313 , 13 , 18
2014111314 , 14 , 25
2014111315 , 15 , 25
2014111316 , 16 , 15
2014111317 , 17 , 26
2014111318 , 18 , 25
2014111319 , 19 , 21
2014111320 , 20 , 33
2014111321 , 21 , 18
2014111322 , 22 , 23
2014111323 , 23 , 33
2014111400 , 00 , 28
2014111401 , 01 , 24
2014111402 , 02 , 25
2014111403 , 03 , 21
2014111404 , 04 , 14
2014111405 , 05 , 24
2014111406 , 06 , 34
2014111407 , 07 , 27
2014111408 , 08 , 26
2014111409 , 09 , 31
2014111410 , 10 , 21
2014111411 , 11 , 31
2014111412 , 12 , 33
2014111413 , 13 , 35
2014111414 , 14 , 18
2014111415 , 15 , 20
2014111416 , 16 , 17
2014111417 , 17 , 23
2014111418 , 18 , 30
2014111419 , 19 , 24
2014111420 , 20 , 26
2014111421 , 21 , 25
2014111422 , 22 , 28
2014111423 , 23 , 25
2014111500 , 00 , 23
2014111501 , 01 , 27
2014111502 , 02 , 27
2014111503 , 03 , 32
2014111504 , 04 , 24
2014111505 , 05 , 21
2014111506 , 06 , 21
2014111507 , 07 , 27
2014111508 , 08 , 30
2014111509 , 09 , 30
2014111510 , 10 , 35
2014111511 , 11 , 19
2014111512 , 12 , 25
2014111513 , 13 , 29
2014111514 , 14 , 37
2014111515 , 15 , 24
2014111516 , 16 , 22
2014111517 , 17 , 28
2014111518 , 18 , 25
2014111519 , 19 , 26
2014111520 , 20 , 17
2014111521 , 21 , 24
2014111522 , 22 , 28
2014111523 , 23 , 27
2014111600 , 00 , 28
2014111601 , 01 , 37
2014111602 , 02 , 25
2014111603 , 03 , 22
2014111604 , 04 , 32
2014111605 , 05 , 35
2014111606 , 06 , 24
2014111607 , 07 , 41
2014111608 , 08 , 18
2014111609 , 09 , 24
2014111610 , 10 , 15
2014111611 , 11 , 24
2014111612 , 12 , 20
2014111613 , 13 , 22
2014111614 , 14 , 17
2014111615 , 15 , 17
2014111616 , 16 , 36
2014111617 , 17 , 19
2014111618 , 18 , 26
2014111619 , 19 , 20
2014111620 , 20 , 20
2014111621 , 21 , 21
2014111622 , 22 , 15
2014111623 , 23 , 30
2014111700 , 00 , 20
2014111701 , 01 , 22
2014111702 , 02 , 24
2014111703 , 03 , 31
2014111704 , 04 , 30
2014111705 , 05 , 22
2014111706 , 06 , 39
2014111707 , 07 , 23
2014111708 , 08 , 26
2014111709 , 09 , 23
2014111710 , 10 , 23
2014111711 , 11 , 24
2014111712 , 12 , 29
2014111713 , 13 , 23
2014111714 , 14 , 20
2014111715 , 15 , 31
2014111716 , 16 , 24
2014111717 , 17 , 28
2014111718 , 18 , 31
2014111719 , 19 , 17
2014111720 , 20 , 21
2014111721 , 21 , 27
2014111722 , 22 , 26
2014111723 , 23 , 22
2014111800 , 00 , 30
2014111801 , 01 , 19
2014111802 , 02 , 30
2014111803 , 03 , 19
2014111804 , 04 , 27
2014111805 , 05 , 35
2014111806 , 06 , 26
2014111807 , 07 , 21
2014111808 , 08 , 30
2014111809 , 09 , 23
2014111810 , 10 , 29
2014111811 , 11 , 29
2014111812 , 12 , 24
2014111813 , 13 , 24
2014111814 , 14 , 22
2014111815 , 15 , 7
2014111816 , 16 , 18
2014111817 , 17 , 10
2014111818 , 18 , 22
2014111819 , 19 , 27
2014111820 , 20 , 20
2014111821 , 21 , 17
2014111822 , 22 , 10
2014111823 , 23 , 20
2014111900 , 00 , 22
2014111901 , 01 , 16
2014111902 , 02 , 20
2014111903 , 03 , 25
2014111904 , 04 , 21
2014111905 , 05 , 27
2014111906 , 06 , 25
2014111907 , 07 , 22
2014111908 , 08 , 18
2014111909 , 09 , 27
2014111910 , 10 , 32
2014111911 , 11 , 17
2014111912 , 12 , 27
2014111913 , 13 , 14
2014111914 , 14 , 17
2014111915 , 15 , 21
2014111916 , 16 , 26
2014111917 , 17 , 42
2014111918 , 18 , 26
2014111919 , 19 , 19
2014111920 , 20 , 15
2014111921 , 21 , 23
2014111922 , 22 , 18
2014111923 , 23 , 19
2014112000 , 00 , 15
2014112001 , 01 , 21
2014112002 , 02 , 16
2014112003 , 03 , 14
2014112004 , 04 , 19
2014112005 , 05 , 13
2014112006 , 06 , 19
2014112007 , 07 , 23
2014112008 , 08 , 17
2014112009 , 09 , 16
2014112010 , 10 , 8
2014112011 , 11 , 4
2014112012 , 12 , 6
2014112013 , 13 , 4
2014112014 , 14 , 3
2014112015 , 15 , 4
2014112016 , 16 , 5
2014112017 , 17 , 16
2014112018 , 18 , 3
2014112019 , 19 , 8
2014112020 , 20 , 4
2014112021 , 21 , 21
2014112022 , 22 , 22
2014112023 , 23 , 20
2014112100 , 00 , 20
2014112101 , 01 , 14
2014112102 , 02 , 25
2014112103 , 03 , 33
2014112104 , 04 , 33
2014112105 , 05 , 21
2014112106 , 06 , 25
2014112107 , 07 , 24
2014112108 , 08 , 38
2014112109 , 09 , 26
2014112110 , 10 , 22
2014112111 , 11 , 20
2014112112 , 12 , 21
2014112113 , 13 , 26
2014112114 , 14 , 24
2014112115 , 15 , 40
2014112116 , 16 , 10
2014112117 , 17 , 7
2014112118 , 18 , 0
2014112119 , 19 , 0
2014112120 , 20 , 0
2014112121 , 21 , 0
2014112122 , 22 , 0
2014112123 , 23 , 0
2014112200 , 00 , 3
2014112201 , 01 , 1
2014112202 , 02 , 1
2014112203 , 03 , 0
2014112204 , 04 , 0
2014112205 , 05 , 17
2014112206 , 06 , 34
2014112207 , 07 , 34
2014112208 , 08 , 29
2014112209 , 09 , 16
2014112210 , 10 , 22
2014112211 , 11 , 13
2014112212 , 12 , 14
2014112213 , 13 , 13
2014112214 , 14 , 24
2014112215 , 15 , 19
2014112216 , 16 , 20
2014112217 , 17 , 15
2014112218 , 18 , 18
2014112219 , 19 , 20
2014112220 , 20 , 16
2014112221 , 21 , 15
2014112222 , 22 , 16
2014112223 , 23 , 19
2014112300 , 00 , 4
2014112301 , 01 , 0
2014112302 , 02 , 0
2014112303 , 03 , 0
2014112304 , 04 , 0
2014112305 , 05 , 0
2014112306 , 06 , 0
2014112307 , 07 , 0
2014112308 , 08 , 0
2014112309 , 09 , 0
2014112310 , 10 , 0
2014112311 , 11 , 0
2014112312 , 12 , 1
2014112313 , 13 , 0
2014112314 , 14 , 0
2014112315 , 15 , 0
2014112316 , 16 , 0
2014112317 , 17 , 20
2014112318 , 18 , 1
2014112319 , 19 , 18
2014112320 , 20 , 20
2014112321 , 21 , 17
2014112322 , 22 , 24
2014112323 , 23 , 11
2014112400 , 00 , 21
2014112401 , 01 , 19
2014112402 , 02 , 12
2014112403 , 03 , 16
2014112404 , 04 , 20
2014112405 , 05 , 35
2014112406 , 06 , 20
2014112407 , 07 , 25
2014112408 , 08 , 26
2014112409 , 09 , 25
2014112410 , 10 , 17
2014112411 , 11 , 19
2014112412 , 12 , 23
2014112413 , 13 , 23
2014112414 , 14 , 23
2014112415 , 15 , 19
2014112416 , 16 , 26
2014112417 , 17 , 18
2014112418 , 18 , 15
2014112419 , 19 , 17
2014112420 , 20 , 29
2014112421 , 21 , 10
2014112422 , 22 , 21
2014112423 , 23 , 19
2014112500 , 00 , 20
2014112501 , 01 , 22
2014112502 , 02 , 14
2014112503 , 03 , 15
2014112504 , 04 , 14
2014112505 , 05 , 22
2014112506 , 06 , 28
2014112507 , 07 , 24
2014112508 , 08 , 17
2014112509 , 09 , 29
2014112510 , 10 , 25
2014112511 , 11 , 26
2014112512 , 12 , 18
2014112513 , 13 , 27
2014112514 , 14 , 17
2014112515 , 15 , 13
2014112516 , 16 , 18
2014112517 , 17 , 27
2014112518 , 18 , 28
2014112519 , 19 , 10
2014112520 , 20 , 22
2014112521 , 21 , 17
2014112522 , 22 , 26
2014112523 , 23 , 19
2014112600 , 00 , 22
2014112601 , 01 , 25
2014112602 , 02 , 15
2014112603 , 03 , 22
2014112604 , 04 , 11
2014112605 , 05 , 16
2014112606 , 06 , 29
2014112607 , 07 , 26
2014112608 , 08 , 26
2014112609 , 09 , 30
2014112610 , 10 , 31
2014112611 , 11 , 23
2014112612 , 12 , 16
2014112613 , 13 , 15
2014112614 , 14 , 13
2014112615 , 15 , 25
2014112616 , 16 , 26
2014112617 , 17 , 25
2014112618 , 18 , 21
2014112619 , 19 , 14
2014112620 , 20 , 16
2014112621 , 21 , 27
2014112622 , 22 , 28
2014112623 , 23 , 29
2014112700 , 00 , 20
2014112701 , 01 , 15
2014112702 , 02 , 26
2014112703 , 03 , 22
2014112704 , 04 , 23
2014112705 , 05 , 33
2014112706 , 06 , 24
2014112707 , 07 , 32
2014112708 , 08 , 24
2014112709 , 09 , 24
2014112710 , 10 , 24
2014112711 , 11 , 25
2014112712 , 12 , 19
2014112713 , 13 , 15
2014112714 , 14 , 20
2014112715 , 15 , 17
2014112716 , 16 , 20
2014112717 , 17 , 23
2014112718 , 18 , 27
2014112719 , 19 , 9
2014112720 , 20 , 19
2014112721 , 21 , 27
2014112722 , 22 , 21
2014112723 , 23 , 27
2014112800 , 00 , 14
2014112801 , 01 , 30
2014112802 , 02 , 19
2014112803 , 03 , 21
2014112804 , 04 , 29
2014112805 , 05 , 31
2014112806 , 06 , 29
2014112807 , 07 , 30
2014112808 , 08 , 23
2014112809 , 09 , 22
2014112810 , 10 , 20
2014112811 , 11 , 19
2014112812 , 12 , 24
2014112813 , 13 , 19
2014112814 , 14 , 18
2014112815 , 15 , 16
2014112816 , 16 , 21
2014112817 , 17 , 24
2014112818 , 18 , 22
2014112819 , 19 , 24
2014112820 , 20 , 8
2014112821 , 21 , 3
2014112822 , 22 , 15
2014112823 , 23 , 26
2014112900 , 00 , 20
2014112901 , 01 , 28
2014112902 , 02 , 32
2014112903 , 03 , 23
2014112904 , 04 , 14
2014112905 , 05 , 5
2014112906 , 06 , 10
2014112907 , 07 , 34
2014112908 , 08 , 30
2014112909 , 09 , 18
2014112910 , 10 , 9
2014112911 , 11 , 0
2014112912 , 12 , 6
2014112913 , 13 , 1
2014112914 , 14 , 0
2014112915 , 15 , 7
2014112916 , 16 , 0
2014112917 , 17 , 0
2014112918 , 18 , 0
2014112919 , 19 , 10
2014112920 , 20 , 0
2014112921 , 21 , 0
2014112922 , 22 , 1
2014112923 , 23 , 10
2014113000 , 00 , 0
2014113001 , 01 , 0
2014113002 , 02 , 5
2014113003 , 03 , 11
2014113004 , 04 , 14
2014113005 , 05 , 18
2014113006 , 06 , 25
2014113007 , 07 , 14
2014113008 , 08 , 0
2014113009 , 09 , 0
2014113010 , 10 , 1
2014113011 , 11 , 4
2014113012 , 12 , 19
2014113013 , 13 , 25
2014113014 , 14 , 26
2014113015 , 15 , 24
2014113016 , 16 , 25
2014113017 , 17 , 26
2014113018 , 18 , 16
2014113019 , 19 , 17
2014113020 , 20 , 22
2014113021 , 21 , 24
2014113022 , 22 , 18
2014113023 , 23 , 18
